WetterOnline ( http://www.wetteronline.de )

Wetter aktuell Trier

Aktuelles Wetter: Trier/Petrisberg (273m)

6-stündlich | Neueste Meldungen
Ortszeit Temperatur Wetter
Mo, 25.06. 2:00 14.9° C bedeckt
So, 24.06. 20:00 18.7° C wolkig
So, 24.06. 14:00 19.5° C wolkig
So, 24.06. 8:00 11.2° C wolkig
So, 24.06. 2:00 10.1° C bewölkt
Sa, 23.06. 20:00 15.6° C bewölkt
Sa, 23.06. 14:00 16.4° C bewölkt
Sa, 23.06. 8:00 9.2° C bewölkt
Ortszeit Temperatur Wetter
Mo, 25.06. 5:30 13.7° C bedeckt
Mo, 25.06. 5:20 13.7° C bedeckt
Mo, 25.06. 5:10 13.8° C bedeckt
Mo, 25.06. 5:00 13.8° C bewölkt
Mo, 25.06. 4:50 13.8° C bewölkt
Mo, 25.06. 4:40 13.8° C bedeckt
Mo, 25.06. 4:30 13.9° C bewölkt
Mo, 25.06. 4:00 13.7° C wolkig
Mo, 25.06. 3:30 13.8° C bedeckt
Mo, 25.06. 3:00 14.2° C wolkig
Mo, 25.06. 2:30 14.6° C bewölkt
Ortszeit Relative Feuchte Sichtweite
Mo, 25.06. 2:00 72% 70 km
So, 24.06. 20:00 54% 55 km
So, 24.06. 14:00 42% 65 km
So, 24.06. 8:00 88% 29 km
So, 24.06. 2:00 89% 45 km
Sa, 23.06. 20:00 61% 70 km
Sa, 23.06. 14:00 53% 70 km
Sa, 23.06. 8:00 86% 40 km
Ortszeit Relative Feuchte Sichtweite
Mo, 25.06. 5:30 81% 65 km
Mo, 25.06. 5:20 81% -
Mo, 25.06. 5:10 80% -
Mo, 25.06. 5:00 81% 65 km
Mo, 25.06. 4:50 81% -
Mo, 25.06. 4:40 82% -
Mo, 25.06. 4:30 80% 60 km
Mo, 25.06. 4:00 81% 60 km
Mo, 25.06. 3:30 79% 60 km
Mo, 25.06. 3:00 77% 60 km
Mo, 25.06. 2:30 74% 70 km
Ortszeit Niederschlagsmenge Niederschlagsart
Mo, 25.06. 2:00 0.0 l/m2 in 6 Std. -
So, 24.06. 20:00 0.0 l/m2 in 12 Std. -
So, 24.06. 14:00 0.0 l/m2 in 6 Std. -
So, 24.06. 8:00 0.1 l/m2 in 12 Std. Regen
So, 24.06. 2:00 0.0 l/m2 in 6 Std. -
Sa, 23.06. 20:00 0.0 l/m2 in 12 Std. -
Sa, 23.06. 14:00 0.0 l/m2 in 6 Std. -
Sa, 23.06. 8:00 0.0 l/m2 in 12 Std. -
Ortszeit Niederschlagsmenge Niederschlagsart
Mo, 25.06. 5:30 0.0 l/m2 in 1 Std. -
Mo, 25.06. 5:20 keine Meldung -
Mo, 25.06. 5:10 keine Meldung -
Mo, 25.06. 5:00 0.0 l/m2 in 1 Std. -
Mo, 25.06. 4:50 keine Meldung -
Mo, 25.06. 4:40 keine Meldung -
Mo, 25.06. 4:30 0.0 l/m2 in 1 Std. -
Mo, 25.06. 4:00 0.0 l/m2 in 1 Std. -
Mo, 25.06. 3:30 0.0 l/m2 in 1 Std. -
Mo, 25.06. 3:00 0.0 l/m2 in 1 Std. -
Mo, 25.06. 2:30 0.0 l/m2 in 1 Std. -
Ortszeit Stärke Spitze Richtung
km/h Bft. km/h Grad Sektor
Mo, 25.06. 2:00 9 2 28 10° N
So, 24.06. 20:00 18 3 29 20° N
So, 24.06. 14:00 7 2 18 340° N
So, 24.06. 8:00 4 1 7 160° S
So, 24.06. 2:00 4 1 14 120° SO
Sa, 23.06. 20:00 7 2 32 360° N
Sa, 23.06. 14:00 6 1 19 260° W
Sa, 23.06. 8:00 2 1 13 320° NW
Ortszeit Stärke Spitze Richtung
km/h Bft. km/h Grad Sektor
Mo, 25.06. 5:30 6 1 11 10° N
Mo, 25.06. 5:20 6 1 - 10° N
Mo, 25.06. 5:10 7 2 - 360° N
Mo, 25.06. 5:00 7 2 14 10° N
Mo, 25.06. 4:50 7 2 - 10° N
Mo, 25.06. 4:40 7 2 - 20° N
Mo, 25.06. 4:30 7 2 14 10° N
Mo, 25.06. 4:00 9 2 19 20° N
Mo, 25.06. 3:30 9 2 19 20° N
Mo, 25.06. 3:00 11 2 18 20° N
Mo, 25.06. 2:30 11 2 18 20° N
Ortszeit Untergrenze Bedeckung Gattung
total tief tief mittel hoch
Mo, 25.06. 2:00 780 m 8/8 8/8 - - -
So, 24.06. 20:00 1500 m 7/8 2/8 - - -
So, 24.06. 14:00 1290 m 7/8 1/8 - - -
So, 24.06. 8:00 2100 m 7/8 1/8 - - -
So, 24.06. 2:00 4200 m 8/8 7/8 - - -
Sa, 23.06. 20:00 1410 m 8/8 7/8 - - -
Sa, 23.06. 14:00 1230 m 7/8 7/8 - - -
Sa, 23.06. 8:00 750 m 7/8 - - - -
Ortszeit Bedeckungsgrad in Achtel und Wolkenuntergrenze
Mo, 25.06. 5:30 8(630m) 8(1020m) 8(3300m)
Mo, 25.06. 5:20 8(630m) 8(1020m) 8(3300m)
Mo, 25.06. 5:10 8(570m)
Mo, 25.06. 5:00 6(600m) 7(780m) 7(5100m)
Mo, 25.06. 4:50 6(600m) 7(780m) 7(5100m)
Mo, 25.06. 4:40 7(720m) 8(930m) 8(5100m)
Mo, 25.06. 4:30 7(780m) 7(5100m) 8(5100m)
Mo, 25.06. 4:00 1(840m) 8(5100m)
Mo, 25.06. 3:30 4(4200m) 8(4800m)
Mo, 25.06. 3:00 2(1500m) 6(4500m) 8(5100m)
Mo, 25.06. 2:30 1(750m) 7(1500m) 7(5400m)
Ortszeit Luftdruck NN (hPa) Tendenz (hPa in 3 Std.)
Mo, 25.06. 2:00 1022 + 0,3
So, 24.06. 20:00 1021 0,0
So, 24.06. 14:00 1022 - 0,5
So, 24.06. 8:00 1023 0,0
So, 24.06. 2:00 1025 - 0,8
Sa, 23.06. 20:00 1025 - 0,7
Sa, 23.06. 14:00 1027 - 0,8
Sa, 23.06. 8:00 1028 + 0,5
Ortszeit Luftdruck NN (hPa) Tendenz (hPa in 3 Std.)
Mo, 25.06. 5:30 1023 + 0,1
Mo, 25.06. 5:20 1023 keine Meldung
Mo, 25.06. 5:10 1023 keine Meldung
Mo, 25.06. 5:00 1023 - 0,1
Mo, 25.06. 4:50 1023 keine Meldung
Mo, 25.06. 4:40 1023 keine Meldung
Mo, 25.06. 4:30 1023 0,0
Mo, 25.06. 4:00 1022 - 0,3
Mo, 25.06. 3:30 1023 - 0,1
Mo, 25.06. 3:00 1022 - 0,4
Mo, 25.06. 2:30 1022 - 0,1
Ortszeit Schneehöhe (cm)
Mo, 25.06. 2:00 -
So, 24.06. 20:00 -
So, 24.06. 14:00 -
So, 24.06. 8:00 -
So, 24.06. 2:00 -
Sa, 23.06. 20:00 -
Sa, 23.06. 14:00 -
Sa, 23.06. 8:00 -
Ortszeit Schneehöhe (cm)
Mo, 25.06. 5:30 -
Mo, 25.06. 5:20 -
Mo, 25.06. 5:10 -
Mo, 25.06. 5:00 -
Mo, 25.06. 4:50 -
Mo, 25.06. 4:40 -
Mo, 25.06. 4:30 -
Mo, 25.06. 4:00 -
Mo, 25.06. 3:30 -
Mo, 25.06. 3:00 -
Mo, 25.06. 2:30 -
Link zu dieser Seite / Seite empfehlen

Das Wetter in ...